QPF
0.08 0.08 0.09 0.09 0.08 0.08 0.07 0.10 0.13 0.17 0.16 0.12 0.10 0.07 0.06 0.05 0.05 0.04 0.04 0.05 0.05 0.06 0.07 0.06 0.04 0.05 0.06 0.06 0.06 0.06 0.06 0.06 0.06 0.05 0.05 0.05 0.05 0.06
0.08 0.07 0.06 0.07 0.09 0.09 0.09 0.10 0.11 0.13 0.11 0.07 0.06 0.05 0.05 0.05 0.08 0.06 0.05 0.05 0.05 0.05 0.05 0.04 0.04 0.04 0.05 0.05 0.04 0.04 0.04 0.05 0.06 0.06 0.05 0.05 0.06 0.07
0.06 0.06 0.05 0.06 0.07 0.07 0.08 0.09 0.09 0.10 0.08 0.06 0.05 0.05 0.06 0.07 0.10 0.09 0.07 0.05 0.03 0.02 0.02 0.03 0.03 0.04 0.04 0.04 0.04 0.03 0.03 0.03 0.04 0.05 0.06 0.06 0.07 0.07
0.05 0.05 0.05 0.06 0.05 0.06 0.07 0.07 0.08 0.09 0.08 0.08 0.07 0.05 0.05 0.07 0.09 0.08 0.07 0.04 0.03 0.03 0.02 0.02 0.02 0.02 0.02 0.03 0.02 0.02 0.02 0.02 0.03 0.03 0.04 0.05 0.07 0.07
0.04 0.04 0.04 0.05 0.06 0.06 0.06 0.06 0.07 0.09 0.10 0.08 0.07 0.06 0.06 0.06 0.07 0.05 0.05 0.05 0.03 0.03 0.02 0.01 0.01 0.02 0.02 0.02 0.02 0.02 0.02 0.02 0.02 0.02 0.03 0.04 0.04 0.04
0.04 0.04 0.03 0.03 0.04 0.05 0.05 0.06 0.07 0.07 0.08 0.08 0.07 0.06 0.06 0.07 0.07 0.05 0.06 0.06 0.05 0.03 0.03 0.02 0.02 0.02 0.03 0.03 0.02 0.02 0.02 0.02 0.02 0.02 0.02 0.02 0.03 0.03
0.04 0.03 0.02 0.02 0.02 0.03 0.04 0.06 0.08 0.08 0.07 0.06 0.06 0.05 0.05 0.05 0.05 0.05 0.07 0.06 0.06 0.06 0.04 0.03 0.03 0.04 0.05 0.04 0.03 0.03 0.02 0.02 0.02 0.02 0.02 0.03 0.04 0.05
0.06 0.05 0.03 0.02 0.03 0.02 0.02 0.04 0.05 0.06 0.06 0.07 0.08 0.07 0.06 0.05 0.05 0.05 0.06 0.06 0.06 0.06 0.04 0.04 0.03 0.04 0.05 0.04 0.04 0.03 0.02 0.02 0.02 0.02 0.02 0.02 0.02 0.03
0.07 0.07 0.05 0.03 0.03 0.02 0.02 0.02 0.04 0.05 0.05 0.06 0.07 0.08 0.08 0.06 0.05 0.05 0.05 0.06 0.07 0.05 0.06 0.06 0.05 0.04 0.04 0.02 0.02 0.02 0.03 0.03 0.03 0.03 0.03 0.03 0.02 0.02
0.05 0.06 0.06 0.04 0.04 0.03 0.03 0.03 0.04 0.05 0.05 0.05 0.06 0.07 0.07 0.07 0.07 0.08 0.09 0.09 0.08 0.06 0.05 0.06 0.06 0.06 0.05 0.03 0.02 0.02 0.02 0.02 0.03 0.03 0.03 0.03 0.03 0.02
0.04 0.03 0.03 0.03 0.03 0.03 0.04 0.05 0.04 0.04 0.03 0.04 0.05 0.06 0.07 0.08 0.08 0.08 0.09 0.10 0.10 0.08 0.04 0.04 0.05 0.07 0.07 0.05 0.03 0.02 0.03 0.03 0.03 0.03 0.03 0.03 0.03 0.02
0.05 0.05 0.03 0.02 0.03 0.03 0.03 0.04 0.04 0.03 0.03 0.03 0.04 0.04 0.04 0.04 0.06 0.07 0.07 0.09 0.11 0.09 0.05 0.04 0.05 0.06 0.06 0.06 0.05 0.04 0.03 0.03 0.04 0.04 0.03 0.03 0.03 0.02
0.03 0.02 0.03 0.02 0.01 0.01 0.02 0.02 0.02 0.02 0.02 0.04 0.05 0.04 0.04 0.05 0.05 0.05 0.04 0.05 0.07 0.07 0.06 0.05 0.04 0.05 0.05 0.05 0.04 0.04 0.04 0.04 0.05 0.06 0.05 0.04 0.03 0.03
0.04 0.03 0.02 0.02 0.02 0.02 0.02 0.02 0.01 0.01 0.03 0.04 0.04 0.04 0.04 0.05 0.05 0.05 0.05 0.06 0.05 0.05 0.04 0.05 0.05 0.04 0.04 0.05 0.05 0.04 0.04 0.04 0.04 0.05 0.05 0.05 0.04 0.03
0.03 0.03 0.03 0.02 0.02 0.02 0.02 0.02 0.02 0.02 0.03 0.03 0.03 0.04 0.04 0.05 0.04 0.04 0.04 0.04 0.05 0.04 0.03 0.04 0.06 0.06 0.05 0.05 0.05 0.05 0.05 0.05 0.05 0.05 0.04 0.04 0.04 0.04
0.02 0.02 0.02 0.02 0.02 0.02 0.02 0.01 0.02 0.03 0.03 0.04 0.04 0.04 0.04 0.04 0.03 0.03 0.04 0.05 0.05 0.04 0.03 0.03 0.04 0.05 0.05 0.05 0.05 0.06 0.06 0.05 0.04 0.04 0.04 0.04 0.04 0.03
0.02 0.02 0.02 0.03 0.03 0.03 0.03 0.02 0.02 0.02 0.02 0.03 0.04 0.04 0.03 0.03 0.03 0.03 0.03 0.04 0.04 0.03 0.04 0.05 0.04 0.03 0.04 0.05 0.06 0.06 0.06 0.05 0.04 0.04 0.04 0.04 0.04 0.04
0.01 0.02 0.03 0.03 0.03 0.02 0.02 0.02 0.02 0.01 0.01 0.01 0.02 0.03 0.03 0.03 0.02 0.02 0.01 0.02 0.02 0.02 0.03 0.03 0.04 0.04 0.04 0.05 0.04 0.04 0.05 0.05 0.04 0.03 0.03 0.03 0.03 0.02
0.01 0.01 0.02 0.02 0.01 0.01 0.01 0.01 0.01 0.01 0.01 0.01 0.01 0.01 0.02 0.02 0.02 0.01 0.01 0.01 0.02 0.02 0.02 0.03 0.03 0.05 0.05 0.04 0.02 0.02 0.03 0.04 0.04 0.03 0.03 0.03 0.03 0.03
0.02 0.02 0.02 0.02 0.01 0.01 0.01 0.00 0.01 0.01 0.01 0.02 0.01 0.01 0.01 0.02 0.02 0.01 0.01 0.01 0.01 0.01 0.01 0.02 0.02 0.03 0.04 0.05 0.03 0.02 0.02 0.03 0.03 0.04 0.03 0.02 0.02 0.02
0.04 0.03 0.03 0.04 0.02 0.02 0.02 0.02 0.01 0.01 0.02 0.02 0.02 0.02 0.02 0.02 0.03 0.02 0.02 0.02 0.02 0.02 0.02 0.02 0.02 0.03 0.03 0.04 0.03 0.02 0.02 0.02 0.02 0.02 0.03 0.03 0.02 0.03
0.04 0.04 0.04 0.04 0.03 0.03 0.02 0.02 0.02 0.02 0.03 0.03 0.02 0.02 0.02 0.02 0.03 0.04 0.03 0.04 0.04 0.04 0.03 0.03 0.03 0.03 0.03 0.04 0.04 0.03 0.03 0.02 0.02 0.01 0.01 0.02 0.03 0.03
0.05 0.05 0.05 0.04 0.05 0.05 0.05 0.04 0.03 0.03 0.03 0.02 0.02 0.03 0.02 0.03 0.03 0.03 0.03 0.03 0.03 0.03 0.03 0.03 0.02 0.02 0.03 0.04 0.03 0.02 0.02 0.03 0.02 0.02 0.02 0.01 0.01 0.01
MSLP
1015.91 1016.22 1016.53 1016.83 1017.12 1017.39 1017.62 1017.82 1017.97 1018.10 1018.20 1018.28 1018.35 1018.42 1018.48 1018.55 1018.62 1018.69 1018.76 1018.84 1018.91 1018.98 1019.06 1019.13 1019.20 1019.26 1019.31 1019.34 1019.35 1019.33 1019.27 1019.18 1019.04 1018.86 1018.63 1018.35 1018.02 1017.66
1015.63 1015.92 1016.20 1016.48 1016.76 1017.03 1017.30 1017.55 1017.77 1017.97 1018.13 1018.26 1018.36 1018.42 1018.45 1018.46 1018.46 1018.44 1018.43 1018.43 1018.45 1018.50 1018.57 1018.67 1018.79 1018.92 1019.04 1019.14 1019.21 1019.24 1019.21 1019.12 1018.96 1018.73 1018.42 1018.05 1017.62 1017.14
1015.38 1015.67 1015.95 1016.21 1016.48 1016.76 1017.04 1017.33 1017.60 1017.85 1018.07 1018.24 1018.36 1018.42 1018.43 1018.39 1018.32 1018.23 1018.15 1018.08 1018.06 1018.07 1018.14 1018.26 1018.41 1018.59 1018.78 1018.94 1019.08 1019.15 1019.16 1019.08 1018.92 1018.65 1018.29 1017.84 1017.33 1016.76
1015.14 1015.46 1015.75 1016.02 1016.30 1016.58 1016.88 1017.19 1017.49 1017.78 1018.03 1018.23 1018.37 1018.43 1018.43 1018.36 1018.24 1018.10 1017.96 1017.84 1017.77 1017.75 1017.81 1017.92 1018.09 1018.30 1018.52 1018.74 1018.91 1019.03 1019.08 1019.03 1018.87 1018.60 1018.22 1017.73 1017.15 1016.52
1014.87 1015.25 1015.58 1015.88 1016.18 1016.48 1016.79 1017.11 1017.44 1017.75 1018.02 1018.24 1018.39 1018.46 1018.45 1018.37 1018.23 1018.06 1017.88 1017.72 1017.61 1017.56 1017.59 1017.68 1017.84 1018.05 1018.28 1018.51 1018.71 1018.86 1018.93 1018.91 1018.78 1018.53 1018.15 1017.67 1017.08 1016.42
1014.54 1014.99 1015.38 1015.74 1016.07 1016.40 1016.74 1017.07 1017.41 1017.73 1018.02 1018.25 1018.41 1018.49 1018.49 1018.41 1018.26 1018.08 1017.89 1017.71 1017.57 1017.49 1017.48 1017.53 1017.65 1017.83 1018.03 1018.24 1018.44 1018.60 1018.69 1018.70 1018.61 1018.40 1018.07 1017.62 1017.06 1016.42
1014.10 1014.63 1015.10 1015.52 1015.91 1016.28 1016.65 1017.01 1017.36 1017.69 1017.99 1018.23 1018.41 1018.50 1018.51 1018.45 1018.32 1018.15 1017.96 1017.77 1017.62 1017.50 1017.45 1017.45 1017.51 1017.63 1017.77 1017.94 1018.11 1018.25 1018.36 1018.39 1018.35 1018.20 1017.94 1017.55 1017.06 1016.47
1013.51 1014.12 1014.67 1015.17 1015.63 1016.07 1016.47 1016.87 1017.24 1017.59 1017.89 1018.15 1018.34 1018.45 1018.49 1018.46 1018.36 1018.22 1018.04 1017.86 1017.70 1017.56 1017.46 1017.41 1017.40 1017.44 1017.51 1017.61 1017.73 1017.85 1017.95 1018.00 1018.00 1017.92 1017.74 1017.44 1017.04 1016.53
1012.81 1013.48 1014.11 1014.69 1015.22 1015.72 1016.18 1016.61 1017.02 1017.38 1017.71 1017.98 1018.19 1018.33 1018.39 1018.39 1018.34 1018.23 1018.09 1017.93 1017.76 1017.61 1017.47 1017.37 1017.29 1017.25 1017.25 1017.28 1017.34 1017.42 1017.50 1017.57 1017.60 1017.58 1017.48 1017.28 1016.99 1016.59
1012.03 1012.75 1013.44 1014.09 1014.69 1015.25 1015.77 1016.25 1016.68 1017.07 1017.42 1017.71 1017.94 1018.10 1018.20 1018.23 1018.22 1018.15 1018.04 1017.91 1017.76 1017.61 1017.45 1017.31 1017.18 1017.08 1017.01 1016.97 1016.98 1017.01 1017.07 1017.14 1017.20 1017.22 1017.19 1017.09 1016.89 1016.61
1011.26 1012.01 1012.75 1013.45 1014.11 1014.72 1015.29 1015.80 1016.27 1016.68 1017.04 1017.35 1017.59 1017.77 1017.90 1017.97 1017.98 1017.95 1017.89 1017.79 1017.66 1017.52 1017.37 1017.21 1017.06 1016.92 1016.80 1016.72 1016.67 1016.67 1016.70 1016.76 1016.83 1016.88 1016.91 1016.87 1016.77 1016.58
1010.58 1011.34 1012.10 1012.83 1013.53 1014.18 1014.78 1015.33 1015.82 1016.25 1016.62 1016.93 1017.18 1017.37 1017.51 1017.59 1017.64 1017.64 1017.61 1017.55 1017.46 1017.35 1017.22 1017.07 1016.92 1016.77 1016.63 1016.53 1016.45 1016.42 1016.42 1016.46 1016.52 1016.59 1016.64 1016.65 1016.61 1016.51
1010.02 1010.79 1011.55 1012.30 1013.01 1013.68 1014.30 1014.87 1015.37 1015.80 1016.17 1016.48 1016.72 1016.91 1017.05 1017.15 1017.21 1017.23 1017.23 1017.21 1017.15 1017.08 1016.99 1016.87 1016.75 1016.62 1016.49 1016.38 1016.30 1016.25 1016.23 1016.25 1016.29 1016.35 1016.40 1016.43 1016.44 1016.40
1009.59 1010.36 1011.12 1011.87 1012.59 1013.26 1013.88 1014.44 1014.94 1015.37 1015.73 1016.03 1016.26 1016.43 1016.56 1016.66 1016.72 1016.75 1016.77 1016.78 1016.76 1016.73 1016.69 1016.62 1016.54 1016.44 1016.35 1016.26 1016.18 1016.12 1016.09 1016.08 1016.10 1016.14 1016.18 1016.22 1016.24 1016.24
1009.24 1010.01 1010.77 1011.51 1012.22 1012.88 1013.50 1014.05 1014.54 1014.96 1015.31 1015.59 1015.80 1015.95 1016.07 1016.15 1016.20 1016.24 1016.27 1016.29 1016.31 1016.32 1016.32 1016.30 1016.27 1016.22 1016.16 1016.10 1016.04 1015.99 1015.95 1015.93 1015.92 1015.94 1015.96 1015.99 1016.03 1016.05
1008.89 1009.66 1010.41 1011.15 1011.85 1012.51 1013.11 1013.66 1014.14 1014.55 1014.89 1015.15 1015.35 1015.49 1015.58 1015.64 1015.68 1015.72 1015.75 1015.78 1015.82 1015.85 1015.89 1015.91 1015.93 1015.92 1015.91 1015.88 1015.84 1015.80 1015.77 1015.74 1015.72 1015.72 1015.74 1015.76 1015.80 1015.85
1008.44 1009.22 1009.97 1010.70 1011.40 1012.06 1012.66 1013.21 1013.70 1014.11 1014.44 1014.70 1014.89 1015.02 1015.10 1015.15 1015.18 1015.20 1015.23 1015.26 1015.30 1015.35 1015.41 1015.46 1015.51 1015.54 1015.56 1015.56 1015.55 1015.53 1015.51 1015.49 1015.47 1015.47 1015.49 1015.53 1015.58 1015.65
1007.84 1008.62 1009.37 1010.11 1010.81 1011.47 1012.09 1012.66 1013.16 1013.59 1013.94 1014.21 1014.41 1014.55 1014.63 1014.67 1014.70 1014.71 1014.72 1014.75 1014.79 1014.84 1014.90 1014.96 1015.03 1015.08 1015.12 1015.15 1015.16 1015.17 1015.17 1015.17 1015.17 1015.19 1015.23 1015.29 1015.37 1015.48
1007.10 1007.86 1008.61 1009.34 1010.05 1010.73 1011.37 1011.97 1012.50 1012.96 1013.35 1013.66 1013.88 1014.04 1014.13 1014.19 1014.21 1014.22 1014.23 1014.24 1014.27 1014.32 1014.37 1014.44 1014.50 1014.57 1014.62 1014.67 1014.71 1014.74 1014.77 1014.80 1014.84 1014.90 1014.97 1015.07 1015.19 1015.33
1006.27 1007.00 1007.72 1008.45 1009.16 1009.86 1010.53 1011.16 1011.73 1012.24 1012.67 1013.01 1013.28 1013.46 1013.59 1013.66 1013.69 1013.71 1013.72 1013.73 1013.75 1013.79 1013.84 1013.90 1013.96 1014.03 1014.10 1014.16 1014.22 1014.28 1014.34 1014.41 1014.49 1014.59 1014.72 1014.86 1015.03 1015.21
1005.48 1006.14 1006.82 1007.52 1008.23 1008.93 1009.62 1010.28 1010.88 1011.43 1011.90 1012.28 1012.59 1012.81 1012.96 1013.06 1013.12 1013.15 1013.17 1013.19 1013.21 1013.25 1013.30 1013.36 1013.43 1013.50 1013.58 1013.66 1013.74 1013.82 1013.92 1014.03 1014.15 1014.29 1014.46 1014.64 1014.85 1015.07
1004.84 1005.41 1006.03 1006.67 1007.35 1008.04 1008.73 1009.39 1010.02 1010.58 1011.07 1011.48 1011.81 1012.06 1012.24 1012.37 1012.45 1012.50 1012.54 1012.58 1012.62 1012.67 1012.73 1012.81 1012.89 1012.98 1013.07 1013.17 1013.27 1013.38 1013.51 1013.64 1013.80 1013.98 1014.17 1014.39 1014.62 1014.86
1004.49 1004.95 1005.47 1006.04 1006.66 1007.31 1007.96 1008.60 1009.20 1009.76 1010.24 1010.65 1010.99 1011.24 1011.44 1011.58 1011.68 1011.76 1011.82 1011.89 1011.96 1012.04 1012.13 1012.23 1012.34 1012.45 1012.57 1012.69 1012.82 1012.96 1013.10 1013.26 1013.43 1013.61 1013.82 1014.04 1014.27 1014.51
Thickness
5717 5717 5716 5717 5717 5717 5715 5711 5704 5697 5697 5701 5702 5704 5703 5702 5700 5698 5697 5695 5693 5691 5689 5687 5685 5684 5682 5681 5680 5678 5677 5675 5674 5672 5670 5670 5669 5668
5714 5714 5713 5714 5715 5715 5713 5712 5708 5702 5696 5698 5698 5699 5699 5699 5696 5694 5693 5692 5689 5688 5686 5684 5682 5680 5679 5678 5676 5674 5673 5671 5669 5668 5667 5665 5664 5663
5711 5711 5710 5710 5710 5710 5710 5708 5706 5703 5695 5695 5697 5696 5695 5693 5691 5691 5689 5688 5687 5685 5684 5682 5680 5678 5676 5674 5672 5670 5668 5667 5665 5664 5662 5661 5660 5659
5707 5707 5706 5707 5706 5705 5704 5702 5701 5700 5696 5691 5691 5691 5690 5690 5689 5689 5687 5687 5685 5683 5681 5679 5677 5675 5672 5670 5668 5666 5664 5663 5661 5659 5657 5656 5655 5654
5704 5703 5702 5702 5701 5700 5699 5698 5697 5697 5694 5690 5687 5688 5687 5687 5685 5685 5684 5683 5683 5680 5678 5676 5673 5671 5669 5667 5664 5662 5660 5659 5657 5655 5653 5652 5650 5648
5701 5700 5698 5697 5696 5696 5695 5693 5693 5691 5690 5687 5685 5684 5682 5683 5681 5679 5678 5678 5678 5678 5675 5673 5670 5667 5665 5662 5660 5658 5656 5654 5652 5651 5649 5647 5646 5644
5697 5695 5694 5692 5691 5690 5689 5687 5686 5684 5683 5681 5680 5678 5677 5675 5674 5675 5673 5673 5673 5674 5671 5669 5666 5663 5661 5659 5657 5655 5653 5651 5649 5647 5645 5644 5642 5640
5691 5690 5689 5687 5685 5684 5683 5682 5681 5679 5677 5675 5674 5672 5671 5672 5671 5670 5668 5667 5665 5669 5666 5664 5663 5660 5659 5657 5655 5653 5650 5648 5647 5644 5642 5641 5639 5637
5686 5685 5685 5683 5681 5679 5678 5677 5676 5676 5674 5672 5669 5668 5668 5669 5668 5666 5664 5663 5662 5664 5662 5659 5659 5657 5657 5656 5654 5651 5648 5646 5644 5642 5639 5637 5635 5633
5683 5681 5679 5678 5677 5674 5674 5673 5672 5671 5670 5669 5668 5667 5668 5667 5666 5664 5663 5662 5662 5661 5660 5655 5655 5654 5655 5652 5651 5649 5646 5644 5641 5638 5636 5634 5631 5629
5678 5676 5675 5673 5670 5669 5669 5668 5666 5665 5666 5666 5665 5665 5664 5663 5661 5659 5658 5656 5654 5655 5656 5653 5652 5651 5650 5649 5647 5645 5643 5640 5638 5635 5633 5630 5627 5625
5672 5671 5669 5668 5665 5664 5663 5662 5660 5660 5660 5660 5659 5659 5659 5658 5657 5655 5654 5651 5649 5648 5650 5648 5646 5644 5642 5645 5643 5640 5637 5636 5634 5632 5629 5626 5623 5619
5667 5666 5664 5662 5661 5659 5658 5657 5656 5655 5656 5655 5655 5654 5654 5653 5652 5651 5650 5648 5645 5643 5645 5643 5640 5638 5635 5635 5637 5636 5633 5632 5629 5627 5625 5623 5619 5615
5661 5660 5658 5656 5655 5653 5653 5652 5651 5651 5651 5650 5650 5649 5648 5647 5647 5646 5645 5644 5643 5641 5640 5639 5635 5633 5630 5628 5628 5629 5629 5628 5626 5623 5621 5619 5615 5612
5655 5654 5652 5650 5649 5648 5647 5647 5646 5645 5645 5644 5644 5643 5644 5643 5643 5641 5640 5639 5639 5638 5637 5634 5632 5630 5626 5623 5622 5622 5622 5622 5622 5619 5616 5614 5611 5608
5648 5647 5647 5646 5644 5643 5642 5641 5641 5641 5640 5639 5639 5639 5640 5639 5637 5636 5634 5632 5630 5630 5631 5629 5627 5625 5621 5620 5618 5616 5616 5615 5615 5613 5611 5609 5607 5605
5641 5641 5641 5640 5639 5639 5639 5638 5637 5636 5635 5634 5633 5632 5632 5632 5631 5630 5628 5626 5623 5622 5621 5621 5621 5619 5617 5614 5612 5611 5611 5609 5609 5607 5604 5601 5600 5599
5635 5636 5636 5636 5635 5635 5634 5634 5633 5632 5631 5629 5628 5626 5625 5624 5624 5624 5622 5619 5617 5616 5615 5614 5613 5610 5609 5608 5606 5605 5604 5603 5602 5601 5599 5595 5592 5592
5630 5630 5630 5630 5629 5629 5630 5629 5628 5627 5626 5624 5622 5621 5620 5619 5618 5617 5615 5613 5612 5610 5610 5608 5606 5603 5598 5597 5600 5600 5597 5597 5595 5594 5592 5589 5586 5585
5626 5625 5625 5624 5624 5624 5624 5624 5623 5622 5620 5619 5617 5615 5614 5613 5612 5610 5609 5607 5606 5604 5603 5602 5600 5598 5594 5592 5592 5593 5592 5591 5589 5586 5584 5582 5580 5578
5623 5622 5621 5621 5620 5619 5619 5618 5617 5615 5614 5612 5611 5609 5608 5607 5605 5604 5603 5602 5599 5598 5596 5595 5596 5596 5593 5590 5587 5586 5585 5584 5584 5581 5578 5575 5572 5570
5619 5618 5617 5617 5616 5614 5613 5612 5612 5610 5608 5606 5605 5604 5603 5601 5600 5598 5598 5596 5594 5593 5591 5591 5590 5589 5586 5582 5580 5579 5578 5577 5577 5575 5572 5570 5567 5564
5613 5613 5612 5611 5610 5608 5607 5606 5604 5603 5601 5600 5598 5597 5596 5595 5595 5594 5593 5592 5590 5588 5586 5585 5584 5582 5580 5578 5575 5574 5573 5571 5569 5567 5565 5564 5562 5560